Cosmos 2221 Rocket - Orbit

View from above orbital plane
View from above orbital plane
View from above satellite
View from above satellite

Ground track
Ground track

The orbit data is extracted from the following two-line orbital elements,

1 22237U 92080B   13140.18770222  .00000356  00000-0  46562-4 0   265
2 22237 082.5144 062.2039 0020614 036.5563 075.2349 14.77575514103498
Epoch (UTC): 20 May 2013 04:30:17
Eccentricity: 0.0020614
inclination: 82.5144°
perigee height: 622 km
apogee height: 651 km
right ascension of ascending node: 62.2039°
argument of perigee: 36.5563°
revolutions per day: 14.77575514
mean anomaly at epoch: 75.2349°
orbit number at epoch: 10349

The dashed part of the orbit path shows where the satellite is in the earth's shadow,  

Developed and maintained by Chris Peat, Heavens-Above GmbH. Please read the updated FAQ before sending e-mail. Imprint. DLR